Погода Ивано-Франковск

Погода Ивано-Франковск : погода сейчас, прогноз погоды и архив. Всё, что Вы хотите узнать о погоде Ивано-Франковск!

Поиск расширенной информации на нашем сайте:

Другие новости

Новости СМИ2

Главная страница сайта

Новости сайта

02.10.2013

Напоминаем, что на нашем новом сайте вы можете получить высокодетализированные прогнозы погоды по пунктам России, СНГ и мира (включающие важные для авиации метеовеличины, такие как направление и скорость ветра, видимость, явления погоды, количество и форма облачности, нижняя и верхняя граница облачности), а также ознакомиться с разнообразными материалами по авиационной метеорологии и подборкой полезных ссылок на эту тему.

Сайт Метеоцентр.Азия посвящён разработке технологий оптимизации авиаметеорологического обслуживания, включая проектирование и перспективное создание нескольких автоматизированных авиаметеорологических систем:
- система выпуска высокодетальных прогностических карт явлений погоды для нижнего воздушного пространства по России и ближнему зарубежью;
- система верификации прогнозов TAF (выпускаемых синоптиками официальных АМСГ РФ и ближнего зарубежья) и AUTOTAF (выпускаемых сайтом Метеоцентр.Азия) - выявление ошибок, онлайн-сопоставление с фактической погодой METAR, автоматическое внесение коррективов в прогнозы при резком отклонении фактической погоды от прогноза, подсчёт оправдываемости прогнозов по элементам и в целом;
- система обработки, анализа и отображения авиаметеорологической информации для применения провайдерами метеорологической информации.

Рекомендуем: Качественный синускан в наличии stimul20.ru.

Погода Ивано-Франковск - сегодня

Время (UTC), дата Ветер
(°,м/с) 
Видим.   Явления Облачность Т
(°С)
Тd
(°С)
f(%) Тe
(°С)
Pmin
(гПа)
dP
(гПа)
Po
(мм)
O2
(г/м3)
Тmin Tmax R s Состояние
почвы
21 24.03.17 280 (З) 10 км  {ливн. осадки}  10/10 800 м 
[Sc]
+5.3 +4.1 92 +5  1029.2  1.2  746  294           
00 25.03.17 240 (ЮЗ) 10 км  {ливн. осадки}  6/0 средняя 
[Ac trans]
+2.4 +2.2 99 +2  1029.3  -0.3  746  298      0.0     
03 25.03.17 250 (З) 10 км    6/6 500 м 
[St]
+0.3 +0 98 1028.8  -0.8  745  300           
06 25.03.17 тихо ()   10 км  в посл. час туман  6/4 600 м верхняя 
[St|Ci fib]
+1.7 +1.4 98 +2  1027.7  -0.9  745  298  -1.3    0.0     
09 25.03.17 020 (С) 40000 м    8/4 600 м верхняя 
[Cu hum|Ci fib]
+9.5 +2.1 60 +11  1025.5  -1.1  744  289           
12 25.03.17 350 (С) 50000 м    9/5 1200 м средняя, верхняя 
[Cu hum|Ac trans|Ci fib]
+9.9 -2.2 43 +9  1023  -2.4  742  289           
15 25.03.17 280 (З) 50000 м    9/4 1000 м средняя 
[Sc|Ac trans]
+10 -3.6 38 +9  1019.2  -3.6  739  288           
18 25.03.17 250 (З) 20000 м    10/4 1380 м средняя 
[Sc|Ac und]
+7.6 -1.7 52 +7  1017.4  -2.1  738  289    +11.1       
21 25.03.17 290 (З) 10 км  в посл. час ливневой дождь  10/10 750 м кучево-дожд. 
[Cb cap]
+7.5 -1.9 51 +5  1015.9  -1.5  737  289           
00 26.03.17 280 (З) 10 км  слаб. ливневой дождь  10/10 360 м кучево-дожд. 
[Cb cap]
+2.5 +1.7 94 1016.3  -0.2  736  294         
03 26.03.17 320 (СЗ) 20000 м  слаб. ливневой дождь  10/10 270 м кучево-дожд. 
[Cb cap]
+2 +1.2 94 -1  1016.2  -0.1  736  294           
06 26.03.17 320 (СЗ) 20000 м  {ливн. осадки}  10/10 450 м кучево-дожд. 
[Cb cap]
+1.9 +0.8 92 1018.5  2.2  738  295  +1.7       
09 26.03.17 320 (СЗ) 10 км  в посл. час ливневой снег  10/10 600 м кучево-дожд. 
[Cb cap]
+2.8 +1.2 89 +1  1020.6  2.2  740  295           
12 26.03.17 350 (С) 10 км  слаб. ливневой дождь со снегом  10/10 600 м кучево-дожд. 
[Cb cap]
+3.9 +0.5 78 +1  1021.9  1.4  741  294      0.0     
15 26.03.17 320 (СЗ) 20000 м  {ливн. осадки}  9/9 800 м 
[Sc]
+4.3 -0.5 71 +2  1023.2  1.3  742  294           
18 26.03.17 300 (СЗ) 10 км  {ливн. осадки}  9/9 900 м 
[Sc]
+2.9 -1.3 74 +1  1025.4  1.9  743  296    +5.2  0.0     
21 26.03.17 280 (З) 10 км    8/8 1200 м 
[Sc]
+2.2 -0.3 84 +2  1026.4  0.9  744  297           
00 27.03.17 тихо ()   10 км    6/0 верхняя 
[Ci fib]
+0.4 -1 90 1026.2  -0.5  743  299           
03 27.03.17 260 (З) 20000 м    9/4 1380 м средняя 
[Sc|Ac trans]
+1.2 -1.4 83 -2  1024.2  -1.7  742  298           
06 27.03.17 260 (З) 20000 м    9/4 1380 м средняя 
[Sc|Ac trans]
+4.1 -0.5 72 +1  1023.7  -0.1  742  295  +0.1         
09 27.03.17 270 (З) 50000 м    8/8 1380 м 
[Sc]
+8.7 -1.2 50 +7  1023  -0.2  742  290           
12 27.03.17 270 (З) 50000 м    3/3 1500 м 
[Sc]
+13 -0.7 39 +12  1020.4  -2  740  285           
15 27.03.17 290 (З) 50000 м    6/0 средняя 
[Ac trans]
+13.7 +0.9 42 +12  1019.8  -0.5  740  284           
18 27.03.17 270 (З) 20000 м    4/0 средняя 
[Ac trans]
+10.3 +1.7 55 +9  1020.9  0.6  740  287    +15.1       
21 27.03.17 260 (З) 20000 м    ясно 
+9 +1.7 60 +8  1021.1  0.1  740  289           
Время (UTC), дата Ветер
(°,м/с) 
Видим.   Явления Облачность Т
(°С)
Тd
(°С)
f(%) Тe
(°С)
Pmin
(гПа)
dP
(гПа)
Po
(мм)
O2
(г/м3)
Тmin Tmax R s Состояние
почвы

Для получения пояснительной информации подведите курсор к названию столбца.

ПОГОДА Ивано-Франковск - архив

Всё, что Вы хотите узнать о погоде Ивано-Франковск - удобно и подробно!

Выберите нужную дату (начиная с 1 января 2015* года) и нажмите кнопку "Найти".
Будут отображены архивные сводки погоды по пункту Ивано-Франковск, начиная с указанной даты.


Отображать данные в формате CSV (для использования в таблицах Excel)


Внимание! Наш архив погоды предназначен исключительно для личного некоммерческого использования в познавательных целях. Если Вам необходимы официальные справки о состоянии погоды (для производственных, юридических, коммерческих и т.п. целей), обращайтесь в органы Росгидромета.

*Примечание: данная дата относится к архиву по метеостанциям СССР (Россия, СНГ, Балтия).
Архив по метеостанциям Зарубежной Европы и Азии (кроме Китая) хранится 10 дней, по другим регионам земного шара (Китай, Африка, Америка, Австралия, Океания) - 1 день.

Ивано-Франковск - район местоположения метеостанции


Название, широта, долгота, высота метеостанции:
Ивано-Франковск 49°ш. 24.4°д. 280 м над ур. моря [Украина]

Дополнительная информация

В oтличие oт бoльшинства пoгoдных сайтoв мы публикуем пoдрoбную метеoинфoрмацию в детальнoм прoфессиoнальнoм фoрмате.

Характеристики температуры и влажнoсти вoздуха измеряются на высoте 2 м в тени вдали oт зданий и деревьев.
Скoрoсть ветра измеряется на высoте 10 м (на урoвне рoста челoвека скoрoсть ветра ниже в 1.5-2 раза). Если метеoстанция нахoдится в гoрoде или в лесу, тo скoрoсть ветра занижена на 2-4 м/с пo сравнению с oткрытым местoм. Скoрoсть ветра над акватoриями крупных рек и oзёр, а также на вершинах хoлмoв на 2-5 м/с выше, чем в oбычных услoвиях.
Атмoсфернoе давление в разных тoчках местнoсти мoжет значительнo oтличаться oт давления на метеoстанции, в зависимoсти oт услoвий рельефа (при пoдъёме на 10 м давление пoнижается примернo на 1 мм рт.ст.).